User: anonymous   Login
Location: Larrial
(48.2758°N, 4.5331°W)
Time: 04:35:41
(UTC+00:00)
Language:

AAUSAT CUBESAT 2 - Orbit

View from above orbital plane
View from above orbital plane
View from above satellite
View from above satellite

Ground track
Ground track

The orbit data is extracted from the following two-line orbital elements,

1 32788U 08021F   22274.38942450  .00005687  00000-0  48239-3 0  9996
2 32788  97.5458 256.0570 0012558 119.2021 241.0460 14.98256875784292
Epoch (UTC): 01 October 2022 09:20:46
Eccentricity: 0.0012558
inclination: 97.5458°
perigee height: 563 km
apogee height: 581 km
right ascension of ascending node: 256.0570°
argument of perigee: 119.2021°
revolutions per day: 14.98256875
mean anomaly at epoch: 241.0460°
orbit number at epoch: 78429

The dashed part of the orbit path shows where the satellite is in the earth's shadow,  

DLR